"2016-04-05 00:00:00",1519131,1.905,164.3,1.337,0.081,19.31,106.9187,16.99,18.11,16.67,0,110.9,13.07,17.80,126.3
"2016-04-05 00:00:30",1519132,1.919,158.6,1.807,0.07,19.36,106.9187,16.99,18.08,16.69,0,110.9,13.08,17.80,120.6
"2016-04-05 00:01:00",1519133,1.871,156.2,3.052,0.07,19.4,106.9144,16.98,18.08,16.73,0,110.9,13.08,17.79,118.2
"2016-04-05 00:01:30",1519134,1.919,153.8,3.259,0.081,19.36,106.8993,16.94,18.06,16.78,0,110.9,13.08,17.75,115.8
"2016-04-05 00:02:00",1519135,2.087,155.5,2.504,0.104,19.38,106.8852,16.9,18.04,16.78,0,110.8,13.08,17.71,117.5
"2016-04-05 00:02:30",1519136,2.306,156.1,2.071,0.125,19.41,106.8852,16.9,18.03,16.76,0,110.9,13.07,17.71,118.1
"2016-04-05 00:03:00",1519137,2.242,158.2,1.731,0.12,19.57,106.8879,16.91,18.01,16.77,0,110.8,13.07,17.72,120.2
"2016-04-05 00:03:30",1519138,2.418,153.9,4.242,0.145,19.45,106.8844,16.9,18,16.98,0,110.8,13.07,17.71,115.9
"2016-04-05 00:04:00",1519139,2.329,150.6,4.961,0.121,19.33,106.8712,16.87,17.99,17.17,0,110.8,13.07,17.68,112.6
"2016-04-05 00:04:30",1519140,2.52,146.1,1.907,0.1,19.43,106.8662,16.85,17.97,17.29,0,110.8,13.07,17.66,108.1
"2016-04-05 00:05:00",1519141,2.523,146.8,2.875,0.115,19.44,106.8716,16.87,17.94,17.17,0,110.8,13.07,17.68,108.8
"2016-04-05 00:05:30",1519142,2.74,149.7,1.933,0.133,19.45,106.8818,16.89,17.95,17.04,0,110.8,13.07,17.70,111.7
"2016-04-05 00:06:00",1519143,2.679,155.5,3.864,0.118,19.42,106.8779,16.88,17.93,17.02,0,110.8,13.07,17.69,117.5
"2016-04-05 00:06:30",1519144,2.608,162,1.491,0.1,19.59,106.8608,16.84,17.9,16.99,0,110.8,13.07,17.65,124.0
"2016-04-05 00:07:00",1519145,2.447,156.1,5.313,0.169,19.58,106.8538,16.82,17.88,16.93,0,110.8,13.07,17.63,118.1
"2016-04-05 00:07:30",1519146,2.251,151.5,2.008,0.102,19.43,106.8535,16.82,17.88,16.89,0,110.8,13.08,17.63,113.5
"2016-04-05 00:08:00",1519147,2.481,155.8,2.852,0.128,19.44,106.8535,16.82,17.87,16.84,0,110.8,13.08,17.63,117.8
"2016-04-05 00:08:30",1519148,2.624,159.8,1.964,0.094,19.51,106.8495,16.81,17.86,16.82,0,110.8,13.09,17.62,121.8
"2016-04-05 00:09:00",1519149,2.732,155.8,1.708,0.109,19.39,106.8383,16.78,17.86,16.8,0,110.8,13.09,17.59,117.8
"2016-04-05 00:09:30",1519150,2.647,144.4,4.887,0.128,19.5,106.8222,16.74,17.83,16.82,0,110.8,13.09,17.55,106.4
"2016-04-05 00:10:00",1519151,2.752,144.4,2.027,0.144,19.41,106.8197,16.73,17.83,16.87,0,110.8,13.09,17.54,106.4
"2016-04-05 00:10:30",1519152,2.521,148.2,1.57,0.129,19.6,106.8197,16.73,17.81,16.86,0,110.8,13.09,17.54,110.2
"2016-04-05 00:11:00",1519153,2.562,154.4,4.897,0.36,19.43,106.8197,16.73,17.8,16.87,0,110.8,13.09,17.54,116.4
"2016-04-05 00:11:30",1519154,2.751,156.7,2.13,0.117,19.46,106.818,16.73,17.78,16.87,0,110.8,13.09,17.54,118.7
"2016-04-05 00:12:00",1519155,2.722,159.4,1.9,0.14,19.49,106.809,16.71,17.78,16.9,0,110.8,13.09,17.52,121.4
"2016-04-05 00:12:30",1519156,2.114,176.1,18.03,0.399,19.54,106.8034,16.69,17.77,16.92,0,110.8,13.09,17.50,138.1
"2016-04-05 00:13:00",1519157,1.884,180,5.115,0.091,19.56,106.7893,16.66,17.76,16.93,0,110.8,13.09,17.47,142.0
"2016-04-05 00:13:30",1519158,1.913,175.6,2.783,0.08,19.59,106.7875,16.65,17.75,16.92,0,110.8,13.09,17.46,137.6
"2016-04-05 00:14:00",1519159,1.872,158,7.067,0.248,19.47,106.7899,16.66,17.74,16.92,0,110.8,13.09,17.47,120.0
"2016-04-05 00:14:30",1519160,1.729,161.7,6.834,0.141,19.53,106.7932,16.67,17.73,16.94,0,110.8,13.09,17.48,123.7
"2016-04-05 00:15:00",1519161,1.829,152.1,6.849,0.186,19.49,106.7986,16.68,17.71,16.96,0,110.8,13.09,17.49,114.1
"2016-04-05 00:15:30",1519162,1.862,159.8,3.521,0.156,19.57,106.7991,16.68,17.71,16.97,0,110.8,13.09,17.49,121.8
"2016-04-05 00:16:00",1519163,2.453,161.7,3.176,0.311,19.45,106.794,16.67,17.71,16.97,0,110.8,13.09,17.48,123.7
"2016-04-05 00:16:30",1519164,2.067,155.7,3.856,0.178,19.47,106.786,16.65,17.71,16.97,0,110.8,13.1,17.46,117.7
"2016-04-05 00:17:00",1519165,2.246,156.9,4.599,0.108,19.56,106.7785,16.63,17.68,16.98,0,110.8,13.1,17.44,118.9
"2016-04-05 00:17:30",1519166,2.446,154.6,3.235,0.126,19.42,106.7828,16.64,17.68,16.99,0,110.8,13.1,17.45,116.6
"2016-04-05 00:18:00",1519167,2.539,151.5,3.112,0.083,19.55,106.7852,16.64,17.68,17.02,0,110.8,13.1,17.45,113.5
"2016-04-05 00:18:30",1519168,2.164,150.5,4.496,0.154,19.4,106.7876,16.65,17.68,17,0,110.8,13.1,17.46,112.5
"2016-04-05 00:19:00",1519169,1.985,148.4,2.961,0.137,19.38,106.7879,16.65,17.66,16.96,0,110.8,13.1,17.46,110.4
"2016-04-05 00:19:30",1519170,1.72,151.1,3.242,0.153,19.53,106.7882,16.65,17.67,16.96,0,110.8,13.1,17.46,113.1
"2016-04-05 00:20:00",1519171,2.063,153.4,4.9,0.19,19.43,106.7882,16.65,17.66,16.95,0,110.8,13.09,17.46,115.4
"2016-04-05 00:20:30",1519172,2.359,156.8,4.219,0.151,19.52,106.786,16.65,17.65,16.92,0,110.7,13.09,17.46,118.8
"2016-04-05 00:21:00",1519173,2.266,157.8,6.145,0.196,19.5,106.779,16.63,17.66,16.95,0,110.7,13.09,17.44,119.8
"2016-04-05 00:21:30",1519174,2.234,163.3,3.879,0.106,19.62,106.7677,16.6,17.63,16.93,0,110.7,13.09,17.41,125.3
"2016-04-05 00:22:00",1519175,2.019,162.4,4.084,0.199,19.58,106.7548,16.57,17.63,16.97,0,110.7,13.09,17.38,124.4
"2016-04-05 00:22:30",1519176,2.176,169.3,2.042,0.269,19.53,106.7545,16.57,17.63,17,0,110.7,13.09,17.38,131.3
"2016-04-05 00:23:00",1519177,2.513,171.3,2.319,0.117,19.62,106.7545,16.57,17.64,16.98,0,110.7,13.09,17.38,133.3
"2016-04-05 00:23:30",1519178,2.311,171.8,4.727,0.13,19.64,106.7545,16.57,17.62,16.96,0,110.7,13.09,17.38,133.8
"2016-04-05 00:24:00",1519179,2.796,176.1,1.922,0.171,19.53,106.7545,16.57,17.61,16.99,0,110.7,13.09,17.38,138.1
"2016-04-05 00:24:30",1519180,2.972,167.8,4.554,0.191,19.58,106.7548,16.57,17.61,17,0,110.7,13.09,17.38,129.8
"2016-04-05 00:25:00",1519181,2.748,173,2.587,0.175,19.59,106.7548,16.57,17.61,16.99,0,110.7,13.1,17.38,135.0
"2016-04-05 00:25:30",1519182,2.78,168.5,4.204,0.278,19.51,106.7548,16.57,17.6,17.01,0,110.7,13.1,17.38,130.5
"2016-04-05 00:26:00",1519183,3.051,168.2,1.959,0.19,19.48,106.7554,16.57,17.59,17.04,0,110.7,13.1,17.38,130.2
"2016-04-05 00:26:30",1519184,2.345,167.9,5.917,0.195,19.61,106.7539,16.56,17.6,17.04,0,110.7,13.1,17.37,129.9
"2016-04-05 00:27:00",1519185,2.635,162.9,2.83,0.392,19.55,106.7552,16.57,17.59,17.02,0,110.7,13.1,17.38,124.9
"2016-04-05 00:27:30",1519186,3.02,158.4,2.461,0.155,19.46,106.7554,16.57,17.6,17.05,0,110.7,13.1,17.38,120.4
"2016-04-05 00:28:00",1519187,3.121,154.8,2.158,0.177,19.52,106.7552,16.57,17.59,17.04,0,110.7,13.1,17.38,116.8
"2016-04-05 00:28:30",1519188,3.337,155.5,1.434,0.086,19.56,106.7528,16.56,17.58,17.04,0,110.7,13.1,17.37,117.5
"2016-04-05 00:29:00",1519189,3.332,156.9,3.333,0.078,19.43,106.7516,16.56,17.59,17.05,0,110.7,13.1,17.37,118.9
"2016-04-05 00:29:30",1519190,3.142,155.8,1.507,0.073,19.52,106.7508,16.56,17.58,17.06,0,110.7,13.1,17.37,117.8
"2016-04-05 00:30:00",1519191,3.01,156.4,1.282,0.092,19.49,106.7517,16.56,17.59,17.05,0,110.7,13.1,17.37,118.4
"2016-04-05 00:30:30",1519192,3.058,152.3,1.764,0.101,19.6,106.7534,16.56,17.59,17.05,0,110.7,13.11,17.37,114.3
"2016-04-05 00:31:00",1519193,3.064,152,3.292,0.177,19.5,106.7558,16.57,17.58,17.03,0,110.7,13.11,17.38,114.0
"2016-04-05 00:31:30",1519194,3.302,153.7,3.252,0.116,19.46,106.7567,16.57,17.58,17.03,0,110.7,13.11,17.38,115.7
"2016-04-05 00:32:00",1519195,3.021,156.6,3.824,0.177,19.51,106.7565,16.57,17.58,17.03,0,110.7,13.11,17.38,118.6
"2016-04-05 00:32:30",1519196,3.023,154,2.782,0.117,19.55,106.7568,16.57,17.58,17.02,0,110.7,13.11,17.38,116.0
"2016-04-05 00:33:00",1519197,3.088,150.2,1.315,0.22,19.49,106.7568,16.57,17.59,17.02,0,110.7,13.11,17.38,112.2
"2016-04-05 00:33:30",1519198,2.526,151.5,1.521,0.097,19.53,106.7568,16.57,17.58,16.99,0,110.7,13.11,17.38,113.5
"2016-04-05 00:34:00",1519199,2.657,156.2,5.778,0.211,19.44,106.7568,16.57,17.58,17.02,0,110.7,13.11,17.38,118.2
"2016-04-05 00:34:30",1519200,2.815,162.2,3.007,0.099,19.57,106.7568,16.57,17.58,17.02,0,110.7,13.11,17.38,124.2
"2016-04-05 00:35:00",1519201,2.931,168,3.088,0.131,19.49,106.7568,16.57,17.59,17.02,0,110.7,13.11,17.38,130.0
"2016-04-05 00:35:30",1519202,3.085,174.3,1.178,0.132,19.66,106.7568,16.57,17.58,17.02,0,110.7,13.11,17.38,136.3
"2016-04-05 00:36:00",1519203,3.085,176.2,3.248,0.091,19.62,106.7568,16.57,17.58,16.93,0,110.7,13.11,17.38,138.2
"2016-04-05 00:36:30",1519204,2.746,168.4,2.076,0.16,19.58,106.7568,16.57,17.59,16.93,0,110.7,13.11,17.38,130.4
"2016-04-05 00:37:00",1519205,2.512,164.7,4.726,0.238,19.63,106.7568,16.57,17.59,16.95,0,110.7,13.11,17.38,126.7
"2016-04-05 00:37:30",1519206,2.344,168.2,2.225,0.096,19.53,106.7568,16.57,17.6,16.98,0,110.7,13.11,17.38,130.2
"2016-04-05 00:38:00",1519207,2.483,168.4,4.051,0.176,19.67,106.7568,16.57,17.58,16.98,0,110.7,13.11,17.38,130.4
"2016-04-05 00:38:30",1519208,2.746,163.7,1.963,0.252,19.57,106.7568,16.57,17.58,16.94,0,110.7,13.1,17.38,125.7
"2016-04-05 00:39:00",1519209,2.916,163.7,1.519,0.058,19.61,106.7568,16.57,17.6,17.03,0,110.7,13.11,17.38,125.7
"2016-04-05 00:39:30",1519210,2.617,161.8,1.745,0.161,19.58,106.7568,16.57,17.59,17.09,0,110.7,13.11,17.38,123.8
"2016-04-05 00:40:00",1519211,2.599,161.6,1.993,0.151,19.59,106.7568,16.57,17.6,17.07,0,110.7,13.11,17.38,123.6
"2016-04-05 00:40:30",1519212,2.781,161.8,1.655,0.125,19.6,106.7568,16.57,17.58,17.1,0,110.7,13.11,17.38,123.8
"2016-04-05 00:41:00",1519213,2.789,161.1,2.402,0.073,19.57,106.7568,16.57,17.6,17.19,0,110.7,13.11,17.38,123.1
"2016-04-05 00:41:30",1519214,2.889,165.7,1.606,0.055,19.56,106.7568,16.57,17.6,17.12,0,110.7,13.11,17.38,127.7
"2016-04-05 00:42:00",1519215,2.881,164.7,2.574,0.079,19.57,106.7568,16.57,17.6,17.06,0,110.7,13.11,17.38,126.7
"2016-04-05 00:42:30",1519216,3.004,156.3,4.195,0.166,19.52,106.7571,16.57,17.59,17.13,0,110.7,13.11,17.38,118.3
"2016-04-05 00:43:00",1519217,3.042,156.2,2.853,0.159,19.53,106.7571,16.57,17.6,17.23,0,110.7,13.11,17.38,118.2
"2016-04-05 00:43:30",1519218,2.742,158.7,3.667,0.22,19.51,106.758,16.57,17.59,17.29,0,110.7,13.11,17.38,120.7
"2016-04-05 00:44:00",1519219,3.284,160,2.944,0.114,19.67,106.7574,16.57,17.6,17.16,0,110.7,13.11,17.38,122.0
"2016-04-05 00:44:30",1519220,3.331,161.2,1.513,0.088,19.58,106.7595,16.58,17.58,17.02,0,110.7,13.12,17.39,123.2
"2016-04-05 00:45:00",1519221,3.423,159.2,1.865,0.122,19.64,106.7616,16.58,17.59,16.97,0,110.7,13.12,17.39,121.2
"2016-04-05 00:45:30",1519222,3.282,159.4,1.988,0.069,19.55,106.764,16.59,17.58,16.95,0,110.7,13.12,17.40,121.4
"2016-04-05 00:46:00",1519223,3.07,160.7,1.929,0.153,19.56,106.7649,16.59,17.59,16.9,0,110.7,13.12,17.40,122.7
"2016-04-05 00:46:30",1519224,2.948,163.4,0.661,0.12,19.76,106.7655,16.59,17.6,16.91,0,110.7,13.12,17.40,125.4
"2016-04-05 00:47:00",1519225,2.687,158.5,2.19,0.13,19.55,106.7649,16.59,17.58,16.92,0,110.7,13.12,17.40,120.5
"2016-04-05 00:47:30",1519226,2.832,158.4,1.94,0.069,19.6,106.7647,16.59,17.58,16.9,0,110.7,13.12,17.40,120.4
"2016-04-05 00:48:00",1519227,2.858,150.3,2.514,0.114,19.65,106.7659,16.6,17.6,16.96,0,110.7,13.12,17.41,112.3
"2016-04-05 00:48:30",1519228,3.283,145.8,1.88,0.137,19.55,106.768,16.6,17.6,17.15,0,110.7,13.12,17.41,107.8
"2016-04-05 00:49:00",1519229,2.997,146.8,4.578,0.189,19.46,106.7683,16.6,17.59,17.37,0,110.7,13.12,17.41,108.8
"2016-04-05 00:49:30",1519230,2.739,152.2,2.935,0.226,19.58,106.7691,16.6,17.59,17.41,0,110.7,13.12,17.41,114.2
"2016-04-05 00:50:00",1519231,2.199,159.5,3.669,0.125,19.58,106.7686,16.6,17.59,17.24,0,110.7,13.12,17.41,121.5
"2016-04-05 00:50:30",1519232,2.155,162.6,2.474,0.117,19.57,106.7723,16.61,17.59,17.22,0,110.7,13.12,17.42,124.6
"2016-04-05 00:51:00",1519233,2.33,167.1,5.793,0.137,19.57,106.7757,16.62,17.59,17.09,0,110.7,13.12,17.43,129.1
"2016-04-05 00:51:30",1519234,2.217,159.3,5.935,0.101,19.5,106.7796,16.63,17.6,17.17,0,110.7,13.12,17.44,121.3
"2016-04-05 00:52:00",1519235,2.361,157.2,1.851,0.111,19.53,106.7806,16.63,17.59,17.12,0,110.7,13.12,17.44,119.2
"2016-04-05 00:52:30",1519236,2.413,158.5,1.578,0.053,19.61,106.7766,16.62,17.59,17.02,0,110.7,13.12,17.43,120.5
"2016-04-05 00:53:00",1519237,2.425,152.8,2.722,0.051,19.48,106.7708,16.61,17.6,17.07,0,110.7,13.12,17.42,114.8
"2016-04-05 00:53:30",1519238,2.403,151,3.184,0.078,19.58,106.7658,16.59,17.59,17.17,0,110.7,13.12,17.40,113.0
"2016-04-05 00:54:00",1519239,2.56,148.7,1.372,0.114,19.64,106.7626,16.59,17.58,17.27,0,110.7,13.12,17.40,110.7
"2016-04-05 00:54:30",1519240,2.749,148.9,2.931,0.128,19.49,106.7587,16.58,17.59,17.35,0,110.7,13.11,17.39,110.9
"2016-04-05 00:55:00",1519241,3.106,157.3,3.879,0.22,19.51,106.759,16.58,17.59,17.41,0,110.7,13.11,17.39,119.3
"2016-04-05 00:55:30",1519242,3.294,152.6,3.223,0.13,19.46,106.759,16.58,17.59,17.45,0,110.7,13.11,17.39,114.6
"2016-04-05 00:56:00",1519243,3.146,154.5,4.223,0.168,19.5,106.759,16.58,17.58,17.47,0,110.7,13.11,17.39,116.5
"2016-04-05 00:56:30",1519244,3.414,154.6,1.89,0.122,19.52,106.759,16.58,17.59,17.46,0,110.7,13.11,17.39,116.6
"2016-04-05 00:57:00",1519245,3.356,161.4,2.041,0.192,19.58,106.759,16.58,17.57,17.44,0,110.7,13.11,17.39,123.4
"2016-04-05 00:57:30",1519246,3.429,161.7,1.04,0.136,19.52,106.759,16.58,17.58,17.43,0,110.7,13.11,17.39,123.7
"2016-04-05 00:58:00",1519247,3.337,164,3.82,0.202,19.63,106.759,16.58,17.6,17.43,0,110.7,13.11,17.39,126.0
"2016-04-05 00:58:30",1519248,3.103,164.1,1.404,0.133,19.65,106.759,16.58,17.58,17.4,0,110.7,13.11,17.39,126.1
"2016-04-05 00:59:00",1519249,3.24,161.7,1.104,0.08,19.52,106.759,16.58,17.57,17.45,0,110.7,13.12,17.39,123.7
"2016-04-05 00:59:30",1519250,3.336,166.2,8.11,0.175,19.62,106.7585,16.58,17.57,17.38,0,110.7,13.12,17.39,128.2
"2016-04-05 01:00:00",1519251,3.409,168.5,4.779,0.17,19.56,106.7554,16.57,17.57,17.34,0,110.7,13.12,17.38,130.5
"2016-04-05 01:00:30",1519252,3.63,164.4,1.851,0.1,19.67,106.7531,16.56,17.56,17.42,0,110.7,13.12,17.37,126.4
"2016-04-05 01:01:00",1519253,3.574,167.1,1.004,0.076,19.67,106.7509,16.56,17.56,17.42,0,110.7,13.12,17.37,129.1
"2016-04-05 01:01:30",1519254,3.731,166.8,0.889,0.038,19.69,106.7503,16.56,17.55,17.41,0,110.7,13.12,17.37,128.8
"2016-04-05 01:02:00",1519255,3.725,166.2,0.943,0.092,19.69,106.75,16.55,17.56,17.41,0,110.7,13.12,17.36,128.2
"2016-04-05 01:02:30",1519256,3.85,164,1.347,0.075,19.5,106.7497,16.55,17.55,17.39,0,110.7,13.12,17.36,126.0
"2016-04-05 01:03:00",1519257,3.773,162.9,0.714,0.092,19.48,106.7461,16.54,17.54,17.4,0,110.7,13.12,17.35,124.9
"2016-04-05 01:03:30",1519258,3.652,163,1.216,0.07,19.55,106.745,16.54,17.55,17.4,0,110.7,13.12,17.35,125.0
"2016-04-05 01:04:00",1519259,3.644,163.5,0.949,0.036,19.62,106.7427,16.54,17.56,17.37,0,110.7,13.12,17.35,125.5
"2016-04-05 01:04:30",1519260,3.555,163.3,0.611,0.031,19.6,106.7427,16.54,17.55,17.41,0,110.7,13.12,17.35,125.3
"2016-04-05 01:05:00",1519261,3.622,163.3,0.591,0.049,19.63,106.7393,16.53,17.54,17.4,0,110.7,13.12,17.34,125.3
"2016-04-05 01:05:30",1519262,3.705,164,0.972,0.039,19.6,106.739,16.53,17.54,17.45,0,110.7,13.13,17.34,126.0
"2016-04-05 01:06:00",1519263,3.707,163.5,0.722,0.035,19.62,106.7326,16.51,17.55,17.51,0,110.7,13.12,17.32,125.5
"2016-04-05 01:06:30",1519264,3.586,166.4,3.461,0.192,19.62,106.7306,16.5,17.54,17.51,0,110.7,13.13,17.31,128.4
"2016-04-05 01:07:00",1519265,3.352,168.3,1.412,0.104,19.57,106.7272,16.5,17.54,17.43,0,110.7,13.13,17.31,130.3
"2016-04-05 01:07:30",1519266,3.474,170.5,1.646,0.14,19.57,106.7286,16.5,17.54,17.37,0,110.7,13.13,17.31,132.5
"2016-04-05 01:08:00",1519267,3.487,166.6,3.429,0.17,19.61,106.7281,16.5,17.54,17.37,0,110.7,13.13,17.31,128.6
"2016-04-05 01:08:30",1519268,3.547,158.6,3.581,0.207,19.58,106.7269,16.5,17.55,17.38,0,110.7,13.13,17.30,120.6
"2016-04-05 01:09:00",1519269,3.559,154.3,1.432,0.113,19.61,106.7264,16.49,17.54,17.41,0,110.7,13.13,17.30,116.3
"2016-04-05 01:09:30",1519270,3.747,158.1,3.514,0.283,19.69,106.7252,16.49,17.54,17.43,0,110.7,13.13,17.30,120.1
"2016-04-05 01:10:00",1519271,3.614,162.2,4.221,0.163,19.68,106.7255,16.49,17.54,17.29,0,110.7,13.13,17.30,124.2
"2016-04-05 01:10:30",1519272,3.592,161.1,2.696,0.123,19.65,106.7258,16.49,17.55,17.35,0,110.7,13.13,17.30,123.1
"2016-04-05 01:11:00",1519273,3.379,161,2.509,0.107,19.52,106.7267,16.49,17.54,17.43,0,110.7,13.12,17.30,123.0
"2016-04-05 01:11:30",1519274,3.094,166.6,6.624,0.124,19.68,106.7261,16.49,17.52,17.37,0,110.6,13.12,17.30,128.6
"2016-04-05 01:12:00",1519275,2.99,170.2,5.866,0.289,19.67,106.7261,16.49,17.53,17.22,0,110.7,13.12,17.30,132.2
"2016-04-05 01:12:30",1519276,3.411,168.2,4.872,0.248,19.67,106.7285,16.5,17.53,17.26,0,110.6,13.12,17.31,130.2
"2016-04-05 01:13:00",1519277,3.659,166.8,2.236,0.271,19.69,106.7306,16.5,17.52,17.24,0,110.7,13.12,17.31,128.8
"2016-04-05 01:13:30",1519278,3.304,167,1.417,0.076,19.73,106.7328,16.51,17.54,17.25,0,110.7,13.12,17.32,129.0
"2016-04-05 01:14:00",1519279,3.436,166.9,0.898,0.058,19.74,106.7325,16.51,17.53,17.3,0,110.6,13.12,17.32,128.9
"2016-04-05 01:14:30",1519280,3.557,168.3,1.831,0.16,19.66,106.7331,16.51,17.53,17.31,0,110.7,13.12,17.32,130.3
"2016-04-05 01:15:00",1519281,3.478,163.9,2.568,0.094,19.75,106.7337,16.51,17.52,17.36,0,110.6,13.12,17.32,125.9
"2016-04-05 01:15:30",1519282,3.214,161.8,1.376,0.158,19.69,106.7346,16.51,17.53,17.42,0,110.6,13.12,17.32,123.8
"2016-04-05 01:16:00",1519283,3.159,166,0.753,0.061,19.69,106.7358,16.52,17.52,17.42,0,110.6,13.12,17.33,128.0
"2016-04-05 01:16:30",1519284,2.96,163.6,2.154,0.128,19.74,106.7379,16.52,17.51,17.35,0,110.6,13.12,17.33,125.6
"2016-04-05 01:17:00",1519285,2.89,163,2.621,0.077,19.77,106.7376,16.52,17.52,17.3,0,110.6,13.13,17.33,125.0
"2016-04-05 01:17:30",1519286,2.941,165.7,4.113,0.128,19.65,106.7379,16.52,17.51,17.27,0,110.6,13.13,17.33,127.7
"2016-04-05 01:18:00",1519287,3.175,161,4.03,0.239,19.77,106.7406,16.53,17.51,17.24,0,110.6,13.13,17.34,123.0
"2016-04-05 01:18:30",1519288,4,162,4.208,0.253,19.73,106.743,16.54,17.52,17.28,0,110.6,13.13,17.35,124.0
"2016-04-05 01:19:00",1519289,3.467,171.7,1.77,0.357,19.7,106.7442,16.54,17.52,17.25,0,110.6,13.13,17.35,133.7
"2016-04-05 01:19:30",1519290,3.259,171.3,3.157,0.183,19.66,106.7485,16.55,17.51,17.21,0,110.6,13.14,17.36,133.3
"2016-04-05 01:20:00",1519291,3.385,176.4,3.699,0.164,19.82,106.748,16.55,17.51,17.22,0,110.6,13.14,17.36,138.4
"2016-04-05 01:20:30",1519292,3.275,166.4,7.506,0.163,19.67,106.7494,16.55,17.5,17.27,0,110.6,13.14,17.36,128.4
"2016-04-05 01:21:00",1519293,2.912,162.6,2.566,0.19,19.74,106.7481,16.55,17.51,17.31,0,110.6,13.14,17.36,124.6
"2016-04-05 01:21:30",1519294,2.616,159.8,2.988,0.14,19.74,106.7484,16.55,17.5,17.34,0,110.6,13.14,17.36,121.8
"2016-04-05 01:22:00",1519295,3.018,159.4,5.854,0.269,19.72,106.7472,16.55,17.5,17.36,0,110.6,13.14,17.36,121.4
"2016-04-05 01:22:30",1519296,3.231,158.5,1.447,0.105,19.53,106.7433,16.54,17.5,17.45,0,110.6,13.14,17.35,120.5
"2016-04-05 01:23:00",1519297,3.268,154.4,1.56,0.067,19.74,106.734,16.51,17.5,17.49,0,110.6,13.14,17.32,116.4
"2016-04-05 01:23:30",1519298,3.287,149.5,1.844,0.1,19.58,106.7284,16.5,17.5,17.53,0,110.6,13.14,17.31,111.5
"2016-04-05 01:24:00",1519299,3.245,148.7,2.971,0.089,19.7,106.7275,16.5,17.5,17.48,0,110.6,13.14,17.31,110.7
"2016-04-05 01:24:30",1519300,2.991,163.7,3.701,0.183,19.63,106.7275,16.5,17.49,17.44,0,110.6,13.14,17.31,125.7
"2016-04-05 01:25:00",1519301,3.056,159.1,6.015,0.212,19.61,106.7275,16.5,17.49,17.41,0,110.6,13.14,17.31,121.1
"2016-04-05 01:25:30",1519302,3.152,155.5,2.675,0.187,19.67,106.7275,16.5,17.5,17.43,0,110.6,13.14,17.31,117.5
"2016-04-05 01:26:00",1519303,3.444,157.5,2.298,0.16,19.63,106.7275,16.5,17.48,17.4,0,110.6,13.14,17.31,119.5
"2016-04-05 01:26:30",1519304,3.24,167.1,8.37,0.219,19.72,106.7275,16.5,17.49,17.39,0,110.6,13.14,17.31,129.1
"2016-04-05 01:27:00",1519305,3.1,165.2,3.596,0.166,19.68,106.7275,16.5,17.47,17.37,0,110.6,13.14,17.31,127.2
"2016-04-05 01:27:30",1519306,3.433,162.1,2.38,0.146,19.66,106.7275,16.5,17.46,17.36,0,110.6,13.14,17.31,124.1
"2016-04-05 01:28:00",1519307,3.118,161,3.26,0.29,19.61,106.7275,16.5,17.47,17.39,0,110.6,13.14,17.31,123.0
"2016-04-05 01:28:30",1519308,3.358,162.7,5.398,0.238,19.69,106.7267,16.49,17.46,17.41,0,110.6,13.13,17.30,124.7
"2016-04-05 01:29:00",1519309,3.12,172.1,4.286,0.228,19.72,106.7222,16.48,17.45,17.36,0,110.6,13.13,17.29,134.1
"2016-04-05 01:29:30",1519310,2.95,163.5,4.603,0.11,19.78,106.7191,16.48,17.46,17.34,0,110.6,13.13,17.28,125.5
"2016-04-05 01:30:00",1519311,3.144,172.8,7.22,0.255,19.76,106.7168,16.47,17.47,17.34,0,110.6,13.13,17.28,134.8
"2016-04-05 01:30:30",1519312,3.229,170.5,3.274,0.201,19.65,106.7115,16.46,17.45,17.3,0,110.6,13.13,17.27,132.5
"2016-04-05 01:31:00",1519313,2.813,170.7,2.541,0.129,19.69,106.7053,16.44,17.45,17.34,0,110.6,13.13,17.25,132.7
"2016-04-05 01:31:30",1519314,3.061,170.6,1.685,0.089,19.65,106.6976,16.42,17.45,17.37,0,110.6,13.13,17.23,132.6
"2016-04-05 01:32:00",1519315,3.337,173.3,3.971,0.27,19.71,106.6948,16.41,17.44,17.38,0,110.6,13.13,17.22,135.3
"2016-04-05 01:32:30",1519316,3.127,166.4,1.671,0.098,19.73,106.6937,16.41,17.45,17.37,0,110.6,13.13,17.22,128.4
"2016-04-05 01:33:00",1519317,3.271,181.3,3.021,0.204,19.76,106.6937,16.41,17.45,17.35,0,110.6,13.13,17.22,143.3
"2016-04-05 01:33:30",1519318,3.428,175.2,2.163,0.166,19.72,106.6937,16.41,17.42,17.34,0,110.6,13.13,17.22,137.2
"2016-04-05 01:34:00",1519319,3.496,177.6,1.628,0.104,19.65,106.6937,16.41,17.44,17.33,0,110.6,13.14,17.22,139.6
"2016-04-05 01:34:30",1519320,3.361,181.5,3.479,0.17,19.78,106.6937,16.41,17.44,17.29,0,110.6,13.14,17.22,143.5
"2016-04-05 01:35:00",1519321,3.32,183.1,2.776,0.229,19.79,106.6937,16.41,17.43,17.26,0,110.6,13.14,17.22,145.1
"2016-04-05 01:35:30",1519322,3.627,178.6,3.213,0.14,19.76,106.6937,16.41,17.43,17.2,0,110.6,13.14,17.22,140.6
"2016-04-05 01:36:00",1519323,3.737,179.6,4.079,0.169,19.77,106.6937,16.41,17.43,17.15,0,110.6,13.14,17.22,141.6
"2016-04-05 01:36:30",1519324,3.646,178,1.275,0.098,19.64,106.6937,16.41,17.41,17.25,0,110.6,13.14,17.22,140.0
"2016-04-05 01:37:00",1519325,3.544,177.7,1.87,0.193,19.67,106.6937,16.41,17.41,17.22,0,110.6,13.14,17.22,139.7
"2016-04-05 01:37:30",1519326,3.49,180.6,4.351,0.146,19.69,106.6937,16.41,17.41,17.23,0,110.6,13.14,17.22,142.6
"2016-04-05 01:38:00",1519327,3.238,188.4,3.733,0.114,19.75,106.6937,16.41,17.41,17.2,0,110.6,13.14,17.22,150.4
"2016-04-05 01:38:30",1519328,3.269,187.5,2.851,0.185,19.69,106.6937,16.41,17.42,17.17,0,110.6,13.14,17.22,149.5
"2016-04-05 01:39:00",1519329,3.205,189.2,1.656,0.076,19.77,106.6937,16.41,17.4,17.12,0,110.6,13.14,17.22,151.2
"2016-04-05 01:39:30",1519330,3.224,189.6,3.116,0.08,19.85,106.6937,16.41,17.41,17.04,0,110.6,13.14,17.22,151.6
"2016-04-05 01:40:00",1519331,3.328,191.6,0.75,0.045,19.97,106.6937,16.41,17.41,16.97,0,110.6,13.14,17.22,153.6
"2016-04-05 01:40:30",1519332,3.247,192.9,0.659,0.064,19.91,106.6937,16.41,17.41,16.9,0,110.6,13.14,17.22,154.9
"2016-04-05 01:41:00",1519333,3.207,189.5,2.638,0.086,19.87,106.6937,16.41,17.41,16.88,0,110.6,13.14,17.22,151.5
"2016-04-05 01:41:30",1519334,3.169,186,0.516,0.06,19.71,106.6937,16.41,17.4,16.87,0,110.6,13.14,17.22,148.0
"2016-04-05 01:42:00",1519335,3.101,184.7,1.391,0.055,19.66,106.6937,16.41,17.41,16.89,0,110.6,13.14,17.22,146.7
"2016-04-05 01:42:30",1519336,2.992,186,0.981,0.081,19.68,106.6929,16.41,17.4,16.86,0,110.6,13.14,17.22,148.0
"2016-04-05 01:43:00",1519337,2.844,184.6,2.037,0.081,19.92,106.6931,16.41,17.4,16.86,0,110.6,13.14,17.22,146.6
"2016-04-05 01:43:30",1519338,2.783,180.3,1.482,0.083,19.88,106.6929,16.41,17.4,16.85,0,110.6,13.14,17.22,142.3
"2016-04-05 01:44:00",1519339,2.614,176.1,0.713,0.051,19.72,106.6934,16.41,17.39,16.89,0,110.6,13.14,17.22,138.1
"2016-04-05 01:44:30",1519340,2.636,174.9,0.588,0.129,19.78,106.6929,16.41,17.4,16.91,0,110.6,13.14,17.22,136.9
"2016-04-05 01:45:00",1519341,2.731,174.8,0.66,0.057,19.77,106.6929,16.41,17.4,16.94,0,110.6,13.14,17.22,136.8
"2016-04-05 01:45:30",1519342,2.633,177.1,1.638,0.103,19.65,106.6915,16.4,17.41,16.98,0,110.6,13.14,17.21,139.1
"2016-04-05 01:46:00",1519343,2.383,176.8,1.808,0.149,19.66,106.6912,16.4,17.4,17,0,110.6,13.14,17.21,138.8
"2016-04-05 01:46:30",1519344,2.885,171,0.842,0.128,19.72,106.6892,16.4,17.41,17.04,0,110.6,13.14,17.21,133.0